DW4554 Weather Reports


time (UTC)temp
F
wind
direction
speed
knots
gust
knots
rain 1hr
in
rain 24hr
in
rain mn
in
humidity
%
barometer
mb
20260902232904 61 65 0.9 4.3 0.00 0.00 0.00 85 1017.9
20260902232404 61 46 1.7 4.3 0.00 0.00 0.00 85 1017.8
20260902231905 61 60 0.9 4.3 0.00 0.00 0.00 83 1017.8
20260902231405 61 54 0.9 4.3 0.00 0.00 0.00 83 1017.9
20260902230904 61 40 2.6 12.2 0.00 0.00 0.00 82 1018.0
20260902230404 60 200 0.9 4.3 0.00 0.00 0.00 81 1018.1
20260902225905 60 231 4.3 6.1 0.00 0.00 0.00 81 1018.1
20260902225405 60 276 0.0 1.7 0.00 0.00 0.00 81 1017.8
20260902224904 60 276 0.0 0.0 0.00 0.00 0.00 81 1017.7
20260902224404 60 276 0.0 0.9 0.00 0.00 0.00 81 1017.7
20260902223905 60 276 0.0 6.1 0.00 0.00 0.00 81 1017.9
20260902223405 60 32 0.0 2.6 0.00 0.00 0.00 81 1017.7
20260902222904 60 44 0.0 0.9 0.00 0.00 0.00 81 1017.5
20260902222404 60 44 0.0 0.0 0.00 0.00 0.00 81 1017.4
20260902221904 60 44 0.9 1.7 0.00 0.00 0.00 81 1017.4
20260902221404 60 44 1.7 2.6 0.00 0.00 0.00 81 1017.4
20260902220904 60 59 1.7 2.6 0.00 0.00 0.00 81 1017.4
20260902220405 60 85 0.9 2.6 0.00 0.00 0.00 81 1017.4
20260902215904 60 85 1.7 2.6 0.00 0.00 0.00 81 1017.5
20260902215405 60 86 0.9 2.6 0.00 0.00 0.00 81 1017.6
20260902214405 60 86 0.9 1.7 0.00 0.00 0.00 80 1017.6
20260902213904 60 86 0.0 0.0 0.00 0.00 0.00 79 1017.5
20260902213404 60 86 0.0 1.7 0.00 0.00 0.00 79 1017.6
20260902212404 60 86 0.0 0.0 0.00 0.00 0.00 78 1017.5
20260902211904 60 86 0.0 0.0 0.00 0.00 0.00 78 1017.5
20260902210904 61 86 0.0 0.0 0.00 0.00 0.00 77 1017.6
20260902210404 61 86 0.0 0.0 0.00 0.00 0.00 77 1017.5
20260902204904 62 86 0.0 0.0 0.00 0.00 0.00 76 1017.4
20260902204404 62 86 0.0 0.0 0.00 0.00 0.00 75 1017.3
20260902203904 62 86 0.0 0.0 0.00 0.00 0.00 75 1017.3
20260902203404 62 86 0.0 0.0 0.00 0.00 0.00 74 1017.3
20260902202905 63 86 0.0 0.0 0.00 0.00 0.00 74 1017.2
20260902202405 63 86 0.0 0.0 0.00 0.00 0.00 73 1017.2
20260902201904 63 86 0.0 0.0 0.00 0.00 0.00 73 1017.2
20260902200905 63 86 0.0 0.0 0.00 0.00 0.00 72 1017.0
20260902200405 64 86 0.0 0.0 0.00 0.00 0.00 71 1017.1
20260902195905 64 86 0.0 0.0 0.00 0.00 0.00 71 1017.1
20260902195404 64 86 0.9 1.7 0.00 0.00 0.00 70 1017.0
20260902194904 64 86 0.9 2.6 0.00 0.00 0.00 70 1017.0
20260902194405 64 86 1.7 2.6 0.00 0.00 0.00 70 1017.0
20260902193906 65 252 0.9 2.6 0.00 0.00 0.00 69 1017.0
20260902192904 65 252 0.0 0.0 0.00 0.00 0.00 68 1017.1
20260902192404 66 252 0.0 2.6 0.00 0.00 0.00 67 1017.2
20260902191904 66 252 0.9 1.7 0.00 0.00 0.00 66 1017.1
20260902191404 66 252 0.9 2.6 0.00 0.00 0.00 66 1017.1
20260902190904 66 251 1.7 2.6 0.00 0.00 0.00 66 1017.1
20260902190404 67 250 0.0 0.0 0.00 0.00 0.00 65 1017.1
20260902185904 67 250 0.0 0.0 0.00 0.00 0.00 65 1017.1
20260902184904 68 250 0.0 0.0 0.00 0.00 0.00 63 1017.2
20260902184404 68 250 0.0 0.0 0.00 0.00 0.00 62 1017.2
20260902183904 69 250 0.0 0.0 0.00 0.00 0.00 61 1017.2
20260902183404 69 250 0.0 0.0 0.00 0.00 0.00 61 1017.2
20260902182904 69 250 0.0 0.0 0.00 0.00 0.00 60 1017.1
20260902182404 70 250 0.0 1.7 0.00 0.00 0.00 60 1017.0
20260902181904 70 250 0.9 1.7 0.00 0.00 0.00 59 1016.9
20260902181404 70 250 0.9 1.7 0.00 0.00 0.00 59 1016.9
20260902180904 71 250 0.9 1.7 0.00 0.00 0.00 59 1016.7
20260902180405 71 250 1.7 1.7 0.00 0.00 0.00 58 1016.8
20260902175904 72 250 0.0 0.9 0.00 0.00 0.00 57 1016.8
20260902174904 72 250 0.0 0.9 0.00 0.00 0.00 57 1016.7
20260902174404 73 250 0.9 0.9 0.00 0.00 0.00 57 1016.7
20260902173404 73 250 0.0 0.0 0.00 0.00 0.00 57 1016.8
20260902171904 74 250 0.9 1.7 0.00 0.00 0.00 55 1016.6
20260902171404 75 250 0.0 0.0 0.00 0.00 0.00 55 1016.6
20260902170904 75 250 0.0 0.0 0.00 0.00 0.00 55 1016.6
20260902170404 75 250 0.0 0.0 0.00 0.00 0.00 55 1016.5
20260902165904 76 250 0.0 0.0 0.00 0.00 0.00 54 1016.5
20260902165404 76 250 0.0 0.0 0.00 0.00 0.00 53 1016.6
20260902164904 76 250 0.0 0.0 0.00 0.00 0.00 53 1016.6
20260902164405 77 250 0.0 0.0 0.00 0.00 0.00 51 1016.7
20260902163905 77 250 0.0 0.0 0.00 0.00 0.00 51 1016.7
20260902163404 77 250 0.0 0.0 0.00 0.00 0.00 50 1016.6
20260902162904 77 250 0.0 0.0 0.00 0.00 0.00 49 1016.6
20260902162405 78 250 0.0 0.0 0.00 0.00 0.00 49 1016.5
20260902161905 78 250 0.0 0.0 0.00 0.00 0.00 48 1016.5
20260902161404 78 250 0.0 0.0 0.00 0.00 0.00 48 1016.5
20260902160904 79 250 0.0 0.0 0.00 0.00 0.00 47 1016.6
20260902160404 79 250 0.0 0.0 0.00 0.00 0.00 46 1016.7
20260902155904 79 250 0.0 0.0 0.00 0.00 0.00 45 1016.7
20260902155405 79 250 0.0 0.0 0.00 0.00 0.00 44 1016.7
20260902154904 80 250 0.0 1.7 0.00 0.00 0.00 44 1016.7
20260902154404 80 250 0.0 1.7 0.00 0.00 0.00 43 1016.8
20260902153905 80 250 0.9 1.7 0.00 0.00 0.00 43 1016.8
20260902153404 80 250 0.9 2.6 0.00 0.00 0.00 43 1016.8
20260902152904 81 293 0.9 2.6 0.00 0.00 0.00 42 1016.9
20260902152405 81 296 0.9 2.6 0.00 0.00 0.00 41 1017.0
20260902151904 81 280 2.6 4.3 0.00 0.00 0.00 40 1017.0
20260902150404 82 233 0.9 2.6 0.00 0.00 0.00 40 1017.0
20260902145904 82 233 1.7 4.3 0.00 0.00 0.00 40 1017.1
20260902145404 82 237 1.7 2.6 0.00 0.00 0.00 41 1017.1
20260902144904 82 240 1.7 2.6 0.00 0.00 0.00 41 1017.1
20260902143904 82 231 1.7 2.6 0.00 0.00 0.00 41 1017.2
20260902143404 82 277 0.9 2.6 0.00 0.00 0.00 40 1017.2
20260902142904 82 276 1.7 4.3 0.00 0.00 0.00 40 1017.2
20260902142404 82 285 2.6 6.1 0.00 0.00 0.00 41 1017.3
20260902141404 82 218 2.6 6.1 0.00 0.00 0.00 41 1017.3
20260902140904 82 198 4.3 7.0 0.00 0.00 0.00 40 1017.3
20260902140405 82 212 3.5 7.0 0.00 0.00 0.00 40 1017.3
20260902135904 82 234 4.3 7.0 0.00 0.00 0.00 39 1017.4
20260902135405 83 208 4.3 7.8 0.00 0.00 0.00 39 1017.4
20260902134904 83 195 2.6 5.2 0.00 0.00 0.00 42 1017.5
20260902133904 82 218 2.6 6.1 0.00 0.00 0.00 42 1017.5
20260902133404 82 231 1.7 5.2 0.00 0.00 0.00 41 1017.5
20260902132904 81 189 4.3 7.8 0.00 0.00 0.00 42 1017.6
20260902132404 81 202 2.6 7.0 0.00 0.00 0.00 42 1017.7
20260902131905 81 216 2.6 7.0 0.00 0.00 0.00 41 1017.7
20260902131404 81 214 4.3 7.8 0.00 0.00 0.00 42 1017.7
20260902130904 80 172 4.3 8.7 0.00 0.00 0.00 41 1017.7
20260902125904 80 232 3.5 7.0 0.00 0.00 0.00 43 1017.8
20260902125404 80 230 2.6 7.8 0.00 0.00 0.00 44 1017.8
20260902124905 80 214 4.3 10.4 0.00 0.00 0.00 43 1017.9
20260902123904 79 271 2.6 5.2 0.00 0.00 0.00 44 1018.0
20260902123404 79 198 3.5 7.8 0.00 0.00 0.00 44 1018.1
20260902122904 79 203 1.7 5.2 0.00 0.00 0.00 44 1018.1
20260902122404 79 197 1.7 7.0 0.00 0.00 0.00 45 1018.2
20260902121905 79 211 5.2 8.7 0.00 0.00 0.00 46 1018.2
20260902121404 78 194 1.7 7.8 0.00 0.00 0.00 45 1018.3
20260902120904 78 178 2.6 8.7 0.00 0.00 0.00 45 1018.4
20260902115904 79 229 3.5 7.8 0.00 0.00 0.00 46 1018.3
20260902115404 79 209 5.2 12.2 0.00 0.00 0.00 47 1018.4
20260902114905 78 242 3.5 7.0 0.00 0.00 0.00 46 1018.4
20260902113904 78 229 2.6 6.1 0.00 0.00 0.00 47 1018.5
20260902113404 78 251 2.6 10.4 0.00 0.00 0.00 49 1018.5
20260902112904 78 193 1.7 8.7 0.00 0.00 0.00 48 1018.6
20260902112404 78 229 2.6 7.8 0.00 0.00 0.00 49 1018.6
20260902111904 77 178 2.6 7.8 0.00 0.00 0.00 51 1018.7
20260902111404 77 194 2.6 7.0 0.00 0.00 0.00 50 1018.7
20260902110904 76 273 3.5 6.1 0.00 0.00 0.00 50 1018.7
20260902110404 76 234 4.3 10.4 0.00 0.00 0.00 51 1018.8
20260902105905 76 222 1.7 7.0 0.00 0.00 0.00 50 1018.9
20260902104904 76 212 4.3 10.4 0.00 0.00 0.00 52 1019.0
20260902104404 76 266 2.6 6.1 0.00 0.00 0.00 51 1019.0
20260902103905 76 234 4.3 7.8 0.00 0.00 0.00 52 1019.1
20260902103405 76 202 1.7 4.3 0.00 0.00 0.00 52 1019.1
20260902102904 76 200 2.6 5.2 0.00 0.00 0.00 52 1019.1
20260902102404 76 171 2.6 4.3 0.00 0.00 0.00 52 1019.1
20260902101904 76 145 2.6 7.0 0.00 0.00 0.00 52 1019.2
20260902100904 75 218 3.5 7.0 0.00 0.00 0.00 54 1019.3
20260902100405 75 238 0.0 2.6 0.00 0.00 0.00 53 1019.3
20260902095904 75 283 1.7 4.3 0.00 0.00 0.00 54 1019.4
20260902095404 75 266 0.9 1.7 0.00 0.00 0.00 54 1019.3
20260902094904 75 274 0.9 2.6 0.00 0.00 0.00 53 1019.4
20260902094404 74 274 1.7 2.6 0.00 0.00 0.00 55 1019.5
20260902093904 74 273 1.7 5.2 0.00 0.00 0.00 56 1019.5
20260902092904 74 278 2.6 6.1 0.00 0.00 0.00 58 1019.6
20260902092404 73 272 1.7 4.3 0.00 0.00 0.00 58 1019.6
20260902091904 73 225 1.7 2.6 0.00 0.00 0.00 58 1019.6
20260902090904 72 264 2.6 5.2 0.00 0.00 0.00 60 1019.7
20260902090405 72 197 0.9 1.7 0.00 0.00 0.00 60 1019.8
20260902085904 72 211 0.9 2.6 0.00 0.00 0.00 61 1019.8
20260902085404 72 210 0.0 2.6 0.00 0.00 0.00 61 1019.9
20260902084905 71 210 0.9 4.3 0.00 0.00 0.00 61 1019.9
20260902084404 71 204 0.9 6.1 0.00 0.00 0.00 62 1019.9
20260902083904 70 202 1.7 2.6 0.00 0.00 0.00 64 1019.9
20260902083404 69 225 0.9 2.6 0.00 0.00 0.00 65 1019.9
20260902082904 69 284 0.9 2.6 0.00 0.00 0.00 67 1019.9
20260902082404 68 33 0.0 1.7 0.00 0.00 0.00 68 1019.9
20260902081904 68 33 0.9 2.6 0.00 0.00 0.00 68 1019.9
20260902081404 67 33 0.0 1.7 0.00 0.00 0.00 68 1019.9
20260902080904 66 33 0.9 2.6 0.00 0.00 0.00 71 1019.9
20260902075904 65 33 0.9 2.6 0.00 0.00 0.00 77 1019.8
20260902074904 64 33 0.0 0.9 0.00 0.00 0.00 82 1019.9
20260902074404 63 33 0.0 0.9 0.00 0.00 0.00 81 1019.9
20260902073904 62 33 0.0 1.7 0.00 0.00 0.00 82 1019.9
20260902073404 61 33 0.9 1.7 0.00 0.00 0.00 83 1019.8
20260902072904 61 33 0.0 1.7 0.00 0.00 0.00 87 1019.8
20260902072404 60 33 0.9 1.7 0.00 0.00 0.00 87 1019.7
20260902071904 59 33 0.9 1.7 0.00 0.00 0.00 89 1019.6
20260902071404 59 33 0.9 2.6 0.00 0.00 0.00 90 1019.6
20260902070404 57 28 1.7 2.6 0.00 0.00 0.00 91 1019.6
20260902065905 57 28 1.7 2.6 0.00 0.00 0.00 92 1019.6
20260902064905 56 5 0.0 1.7 0.00 0.00 0.00 92 1019.5
20260902064405 56 5 0.0 0.0 0.00 0.00 0.00 92 1019.5
20260902063904 56 5 0.0 0.0 0.00 0.00 0.00 92 1019.5
20260902063404 56 5 0.0 0.0 0.00 0.00 0.00 92 1019.5
20260902062404 55 5 0.0 0.0 0.00 0.00 0.00 92 1019.6
20260902061904 55 5 0.0 0.9 0.00 0.00 0.00 92 1019.6
20260902060905 54 5 0.0 1.7 0.00 0.00 0.00 92 1019.6
20260902060405 54 5 0.0 1.7 0.00 0.00 0.00 92 1019.6
20260902055904 54 5 0.0 1.7 0.00 0.00 0.00 92 1019.7
20260902055404 53 5 0.9 1.7 0.00 0.00 0.00 92 1019.7
20260902054904 53 5 0.0 0.0 0.00 0.00 0.00 92 1019.7
20260902053904 53 5 0.0 0.0 0.00 0.00 0.00 92 1019.7
20260902053405 53 5 0.0 0.0 0.00 0.00 0.00 92 1019.7
20260902052905 53 5 0.0 0.0 0.00 0.00 0.00 92 1019.7
20260902051404 52 5 0.0 0.9 0.00 0.00 0.00 92 1019.5
20260902050904 52 5 0.0 0.0 0.00 0.00 0.00 92 1019.5
20260902050404 52 5 0.0 0.0 0.00 0.00 0.00 91 1019.5
20260902044404 52 5 0.0 0.0 0.00 0.00 0.00 91 1019.4
20260902043904 52 5 0.0 0.0 0.00 0.00 0.00 91 1019.4
20260902043404 52 5 0.0 0.0 0.00 0.00 0.00 91 1019.3
20260902042904 52 5 0.0 0.0 0.00 0.00 0.00 91 1019.3
20260902042404 52 5 0.0 1.7 0.00 0.00 0.00 91 1019.3
20260902041404 52 5 0.9 1.7 0.00 0.00 0.00 91 1019.2
20260902040904 52 5 0.9 1.7 0.00 0.00 0.00 90 1019.1
20260902035904 52 5 0.0 0.0 0.00 0.00 0.00 90 1019.2
20260902035405 52 5 0.0 0.0 0.00 0.00 0.00 90 1019.2
20260902034904 52 5 0.0 0.0 0.00 0.00 0.00 90 1019.2
20260902034404 52 5 0.0 0.0 0.00 0.00 0.00 90 1019.1
20260902033904 52 5 0.0 0.0 0.00 0.00 0.00 90 1019.1
20260902033404 52 5 0.0 0.0 0.00 0.00 0.00 90 1019.1
20260902032404 52 5 0.0 0.0 0.00 0.00 0.00 90 1019.1
20260902031404 52 5 0.0 0.0 0.00 0.00 0.00 90 1019.1
20260902030904 52 5 0.0 0.9 0.00 0.00 0.00 90 1019.1
20260902030404 52 5 0.0 0.9 0.00 0.00 0.00 90 1019.2
20260902024904 52 5 0.9 1.7 0.00 0.00 0.00 90 1019.2
20260902024404 52 5 0.9 1.7 0.00 0.00 0.00 90 1019.2
20260902023904 52 5 0.0 0.0 0.00 0.00 0.00 90 1019.3
20260902023404 53 5 0.0 0.0 0.00 0.00 0.00 90 1019.4
20260902022905 53 5 0.9 1.7 0.00 0.00 0.00 90 1019.4
20260902022404 52 5 0.9 1.7 0.00 0.00 0.00 90 1019.4
20260902021905 52 5 0.0 1.7 0.00 0.00 0.00 90 1019.5
20260902021404 52 5 1.7 2.6 0.00 0.00 0.00 90 1019.5
20260902020904 52 5 0.9 1.7 0.00 0.00 0.00 90 1019.5
20260902020404 52 5 0.9 1.7 0.00 0.00 0.00 89 1019.5
20260902015904 52 5 0.9 2.6 0.00 0.00 0.00 89 1019.4
20260902015405 52 321 1.7 2.6 0.00 0.00 0.00 89 1019.4
20260902014904 52 294 0.0 2.6 0.00 0.00 0.00 89 1019.3
20260902014404 52 294 0.0 0.0 0.00 0.00 0.00 89 1019.4
20260902013904 53 294 0.0 0.0 0.00 0.00 0.00 89 1019.4
20260902013404 53 294 0.0 0.0 0.00 0.00 0.00 88 1019.4
20260902012404 53 294 0.0 0.0 0.00 0.00 0.00 88 1019.4
20260902011905 53 294 0.0 0.0 0.00 0.00 0.00 88 1019.4
20260902011404 53 294 0.0 0.0 0.00 0.00 0.00 88 1019.3
20260902010904 53 294 0.0 0.0 0.00 0.00 0.00 88 1019.3
20260902010404 53 294 0.0 0.0 0.00 0.00 0.00 88 1019.3
20260902005904 53 294 0.0 0.0 0.00 0.00 0.00 88 1019.3
20260902005404 53 294 0.0 0.0 0.00 0.00 0.00 88 1019.3
20260902004904 53 294 0.0 0.0 0.00 0.00 0.00 87 1019.3
20260902004404 53 294 0.0 0.0 0.00 0.00 0.00 87 1019.2
20260902003904 53 294 0.0 0.0 0.00 0.00 0.00 87 1019.2
20260902002905 54 294 0.0 0.0 0.00 0.00 0.00 87 1019.3
20260902002405 54 294 0.0 0.0 0.00 0.00 0.00 87 1019.3
20260902001904 54 294 0.0 0.0 0.00 0.00 0.00 87 1019.3
20260902001405 54 294 0.0 0.0 0.00 0.00 0.00 86 1019.3
20260902000905 54 294 0.0 0.0 0.00 0.00 0.00 87 1019.3
20260902000406 54 294 0.0 0.0 0.00 0.00 0.00 86 1019.3
20260901235904 54 294 0.0 0.0 0.00 0.00 0.00 86 1019.2
20260901235406 54 294 0.0 0.0 0.00 0.00 0.00 86 1019.2
20260901234904 54 294 0.0 0.0 0.00 0.00 0.00 86 1019.3
20260901234404 55 294 0.0 0.0 0.00 0.00 0.00 86 1019.2
20260901233904 55 294 0.0 0.0 0.00 0.00 0.00 86 1019.2
20260901233404 55 294 0.0 0.0 0.00 0.00 0.00 86 1019.2